Edwards AFB North Base, CA

12:54 PM PDT on September 15, 2019 (GMT -0700)
Edwards AFB North Base

Weather History for K9L2 - August, 2019

Change the Weather History Date:

Monday, August 19, 2019

  Actual Average (WUND) Record (WUND)
Temperature  
Mean Temperature 80 °F -  
Max Temperature 97 °F - - (-1)
Min Temperature 63 °F - - (-1)
Cooling Degree Days 14    
Growing Degree Days 30 (Base 50)    
Moisture  
Dew Point 35 °F    
Average Humidity 21    
Maximum Humidity 37    
Minimum Humidity 8    
Precipitation  
Precipitation 0.00 in - - ()
Sea Level Pressure  
Sea Level Pressure 29.86 in    
Wind  
Wind Speed 12 mph (South)    
Max Wind Speed 20 mph    
Max Gust Speed 25 mph    
Visibility 8 miles    
Events      
Averages and records for this station are not official NWS values.
T = Trace of Precipitation, MM = Missing Value Source: NWS Daily Summary

Daily Weather History Graph

Daily Weather History Graph

Search for Another Location

Airport or City:

Astronomy

Aug. 19, 2019 Rise Set
Actual Time 6:14 AM PDT 7:35 PM PDT
Civil Twilight 5:47 AM PDT 8:01 PM PDT
Nautical Twilight 5:16 AM PDT 8:33 PM PDT
Astronomical Twilight 4:42 AM PDT 9:06 PM PDT
Moon 10:07 PM PDT (8/19) 9:52 AM PDT (8/19)
Length of Visible Light 14h 13m
Length of Day
13h 20m
Waning Gibbous, 84% of the Moon is Illuminated
Aug 19
Waning Gibbous
Aug 23
Last Quarter
Aug 30
New
Sep 5
First Quarter
Sep 13
Full

Hourly Weather History & Observations

Time (PDT) Temp. Dew Point Humidity Pressure Visibility Wind Dir Wind Speed Gust Speed Precip Events Conditions
12:58 AM 76.6 °F 45.3 °F 33% 29.83 in 10.0 mi SW 15.0 mph - N/A   Clear
2:58 AM 73.8 °F 43.2 °F 33% 29.84 in 10.0 mi SSW 6.9 mph - N/A   Clear
3:58 AM 70.7 °F 40.1 °F 33% 29.84 in 10.0 mi South 3.5 mph - N/A   Clear
4:58 AM 73.6 °F 36.7 °F 26% 29.85 in 10.0 mi South 9.2 mph 19.6 mph N/A   Clear
5:58 AM 63.0 °F 36.3 °F 37% 29.87 in 10.0 mi SE 12.7 mph - N/A   Clear
6:58 AM 63.3 °F 36.1 °F 36% 29.90 in 10.0 mi SSE 9.2 mph - N/A   Clear
7:58 AM 68.0 °F 36.1 °F 31% 29.90 in 9.0 mi SSE 13.8 mph - N/A   Clear
8:58 AM 77.5 °F 36.1 °F 22% 29.90 in 9.0 mi South 9.2 mph - N/A   Clear
9:58 AM 84.7 °F 34.3 °F 16% 29.91 in 9.0 mi South 10.4 mph - N/A   Clear
12:58 PM 93.4 °F 29.7 °F 10% 29.86 in 7.0 mi ESE 5.8 mph - N/A   Clear
1:58 PM 96.1 °F 30.2 °F 10% 29.85 in 7.0 mi South 12.7 mph - N/A   Clear
2:43 PM 96.8 °F 30.2 °F 10% 29.85 in 6.0 mi SSW 13.8 mph 20.7 mph N/A   Haze
2:58 PM 96.8 °F 28.8 °F 9% 29.84 in 6.0 mi SSW 11.5 mph 19.6 mph N/A   Haze
3:13 PM 96.8 °F 26.6 °F 8% 29.83 in 7.0 mi SSW 15.0 mph 20.7 mph N/A   Clear
3:58 PM 96.3 °F 26.6 °F 8% 29.82 in 7.0 mi SSW 12.7 mph 20.7 mph N/A   Clear
4:58 PM 95.7 °F 25.0 °F 8% 29.81 in 7.0 mi SSW 18.4 mph 24.2 mph N/A   Clear
6:58 PM 88.9 °F 39.0 °F 17% 29.82 in 8.0 mi SSW 19.6 mph 25.3 mph N/A   Clear
8:58 PM 80.6 °F 42.8 °F 26% 29.85 in 9.0 mi SSW 15.0 mph - N/A   Clear
9:58 PM 78.8 °F 41.9 °F 27% 29.87 in 10.0 mi SSW 13.8 mph - N/A   Clear
10:58 PM 77.0 °F 42.3 °F 29% 29.87 in 10.0 mi SSW 11.5 mph - N/A   Clear